EW6672 Weather Reports


time (UTC)temp
C
wind
direction
speed
KPH
gust
KPH
rain 1hr
cm
rain 24hr
cm
rain mn
cm
humidity
%
barometer
mb
20181020123019 19 135 1.6 6.4 0.00 0.00 0.00 39 922.1
20181020122019 19 112 3.2 9.7 0.00 0.00 0.00 45 922.3
20181020121019 19 112 3.2 9.7 0.00 0.00 0.00 43 922.3
20181020120020 19 112 1.6 6.4 0.00 0.00 0.00 44 922.4
20181020115018 19 45 1.6 8.0 0.00 0.00 0.00 41 922.4
20181020114019 18 112 1.6 8.0 0.00 0.00 0.00 42 922.4
20181020113019 19 135 3.2 14.5 0.00 0.00 0.00 41 922.4
20181020112018 19 22 1.6 14.5 0.00 0.00 0.00 42 922.4
20181020111018 19 22 1.6 8.0 0.00 0.00 0.00 43 922.6
20181020110018 19 22 1.6 3.2 0.00 0.00 0.00 45 922.6
20181020105019 19 135 1.6 8.0 0.00 0.00 0.00 45 922.6
20181020104019 19 90 1.6 4.8 0.00 0.00 0.00 46 922.7
20181020103019 18 135 1.6 6.4 0.00 0.00 0.00 47 922.6
20181020102018 18 112 3.2 8.0 0.00 0.00 0.00 49 922.8
20181020101019 18 112 3.2 11.3 0.00 0.00 0.00 48 922.8
20181020100019 18 135 1.6 8.0 0.00 0.00 0.00 50 922.9
20181020095018 17 292 1.6 9.7 0.00 0.00 0.00 49 923.0
20181020094018 17 112 3.2 6.4 0.00 0.00 0.00 56 923.0
20181020093020 16 112 1.6 6.4 0.00 0.00 0.00 58 923.1
20181020092019 15 112 3.2 9.7 0.00 0.00 0.00 58 923.1
20181020091020 15 135 1.6 8.0 0.00 0.00 0.00 60 923.1
20181020090018 15 112 1.6 9.7 0.00 0.00 0.00 62 923.1
20181020085018 15 135 1.6 4.8 0.00 0.00 0.00 63 923.1
20181020084019 15 0.0 3.2 0.00 0.00 0.00 65 923.1
20181020083020 15 292 1.6 4.8 0.00 0.00 0.00 62 923.1
20181020082021 15 0.0 3.2 0.00 0.00 0.00 65 923.2
20181020081019 15 112 1.6 6.4 0.00 0.00 0.00 67 923.3
20181020080019 15 157 1.6 4.8 0.00 0.00 0.00 67 923.2
20181020075019 15 0.0 3.2 0.00 0.00 0.00 73 923.2
20181020074020 13 22 1.6 6.4 0.00 0.00 0.00 74 923.1
20181020073020 13 0.0 3.2 0.00 0.00 0.00 84 923.1
20181020072019 12 0.0 4.8 0.00 0.00 0.00 99 923.1
20181020071019 10 135 1.6 4.8 0.00 0.00 0.00 99 923.0
20181020070018 8 0.0 1.6 0.00 0.00 0.00 99 922.8
20181020065019 7 0.0 0.0 0.00 0.00 0.00 99 922.7
20181020064019 7 0.0 1.6 0.00 0.00 0.00 99 922.6
20181020063018 6 0.0 3.2 0.00 0.00 0.00 99 922.4
20181020062018 6 0.0 0.0 0.00 0.00 0.00 99 922.2
20181020061019 6 0.0 0.0 0.00 0.00 0.00 99 922.0
20181020060019 5 0.0 0.0 0.00 0.00 0.00 99 921.9
20181020055018 4 0.0 0.0 0.00 0.00 0.00 98 921.8
20181020054019 3 0.0 1.6 0.00 0.00 0.00 98 921.8
20181020053018 3 0.0 0.0 0.00 0.00 0.00 98 921.7
20181020052018 3 0.0 0.0 0.00 0.00 0.00 98 921.6
20181020051019 2 0.0 0.0 0.00 0.00 0.00 98 921.5
20181020050018 3 0.0 0.0 0.00 0.00 0.00 98 921.4
20181020045019 3 0.0 0.0 0.00 0.00 0.00 98 921.3
20181020044019 3 0.0 0.0 0.00 0.00 0.00 98 921.4
20181020043018 3 0.0 0.0 0.00 0.00 0.00 98 921.4
20181020042019 3 0.0 0.0 0.00 0.00 0.00 98 921.4
20181020041018 3 0.0 0.0 0.00 0.00 0.00 98 921.6
20181020040018 3 0.0 0.0 0.00 0.00 0.00 98 921.7
20181020035019 3 0.0 0.0 0.00 0.00 0.00 98 921.7
20181020034018 3 0.0 0.0 0.00 0.00 0.00 98 921.8
20181020033017 3 0.0 0.0 0.00 0.00 0.00 98 921.8
20181020032019 3 0.0 0.0 0.00 0.00 0.00 98 921.8
20181020031019 3 0.0 0.0 0.00 0.00 0.00 98 921.8
20181020030018 3 0.0 0.0 0.00 0.00 0.00 98 921.7
20181020025019 3 0.0 0.0 0.00 0.00 0.00 98 921.7
20181020024019 3 0.0 0.0 0.00 0.00 0.00 97 921.7
20181020023018 4 0.0 0.0 0.00 0.00 0.00 98 921.6
20181020022021 4 0.0 0.0 0.00 0.00 0.00 98 921.7
20181020021019 4 0.0 0.0 0.00 0.00 0.00 98 921.7
20181020020019 4 0.0 0.0 0.00 0.00 0.00 98 921.6
20181020015018 4 0.0 0.0 0.00 0.00 0.00 98 921.5
20181020014018 3 0.0 0.0 0.00 0.00 0.00 98 921.5
20181020013018 3 0.0 0.0 0.00 0.00 0.00 98 921.5
20181020012019 3 0.0 0.0 0.00 0.00 0.00 98 921.5
20181020011019 3 0.0 0.0 0.00 0.00 0.00 98 921.5
20181020010018 3 0.0 0.0 0.00 0.00 0.00 97 921.4
20181020005019 3 0.0 0.0 0.00 0.00 0.00 97 921.4
20181020004018 3 0.0 0.0 0.00 0.00 0.00 97 921.5
20181020003019 3 0.0 0.0 0.00 0.00 0.00 97 921.6
20181020002019 3 0.0 0.0 0.00 0.00 0.00 97 921.6
20181020001019 3 0.0 0.0 0.00 0.00 0.00 97 921.6
20181020000018 3 0.0 0.0 0.00 0.00 0.00 97 921.6
20181019235018 3 0.0 0.0 0.00 0.00 0.00 97 921.6
20181019234018 3 0.0 0.0 0.00 0.00 0.00 97 921.6
20181019233019 3 0.0 0.0 0.00 0.00 0.00 97 921.5
20181019232019 3 0.0 0.0 0.00 0.00 0.00 97 921.5
20181019231019 3 0.0 0.0 0.00 0.00 0.00 97 921.5
20181019230019 3 0.0 0.0 0.00 0.00 0.00 97 921.5
20181019225018 3 0.0 0.0 0.00 0.00 0.00 97 921.4
20181019224018 3 0.0 0.0 0.00 0.00 0.00 97 921.3
20181019223019 3 0.0 0.0 0.00 0.00 0.00 97 921.3
20181019222018 3 0.0 0.0 0.00 0.00 0.00 97 921.2
20181019221019 3 0.0 0.0 0.00 0.00 0.00 96 921.2
20181019220020 3 0.0 0.0 0.00 0.00 0.00 96 921.2
20181019215020 3 0.0 0.0 0.00 0.00 0.00 97 921.3
20181019214019 3 0.0 0.0 0.00 0.00 0.00 96 921.3
20181019213020 3 0.0 0.0 0.00 0.00 0.00 96 921.2
20181019212020 3 0.0 0.0 0.00 0.00 0.00 96 921.2
20181019211020 4 0.0 0.0 0.00 0.00 0.00 96 921.2
20181019210021 4 0.0 0.0 0.00 0.00 0.00 96 921.1
20181019205019 4 0.0 0.0 0.00 0.00 0.00 96 921.1
20181019204019 4 0.0 0.0 0.00 0.00 0.00 96 921.1
20181019203018 4 0.0 0.0 0.00 0.00 0.00 95 921.0
20181019202018 5 0.0 0.0 0.00 0.00 0.00 95 920.9
20181019201019 5 0.0 0.0 0.00 0.00 0.00 95 920.9
20181019200020 5 0.0 0.0 0.00 0.00 0.00 95 920.9
20181019195019 5 0.0 0.0 0.00 0.00 0.00 95 920.8
20181019194018 5 0.0 0.0 0.00 0.00 0.00 96 920.7
20181019193019 5 0.0 0.0 0.00 0.00 0.00 95 920.7
20181019192020 5 0.0 0.0 0.00 0.00 0.00 94 920.6
20181019191019 6 0.0 0.0 0.00 0.00 0.00 95 920.5
20181019190018 5 0.0 0.0 0.00 0.00 0.00 94 920.4
20181019185018 5 0.0 0.0 0.00 0.00 0.00 94 920.2
20181019184018 5 0.0 0.0 0.00 0.00 0.00 92 920.1
20181019183019 6 0.0 0.0 0.00 0.00 0.00 93 919.9
20181019182019 6 0.0 0.0 0.00 0.00 0.00 92 919.8
20181019181018 6 0.0 0.0 0.00 0.00 0.00 91 919.8
20181019180018 6 0.0 0.0 0.00 0.00 0.00 90 919.8
20181019175019 7 0.0 0.0 0.00 0.00 0.00 91 919.7
20181019174019 7 0.0 0.0 0.00 0.00 0.00 90 919.8
20181019173019 7 0.0 0.0 0.00 0.00 0.00 89 919.7
20181019172018 8 0.0 0.0 0.00 0.00 0.00 89 919.8
20181019171018 8 0.0 0.0 0.00 0.00 0.00 87 919.8
20181019170018 8 0.0 0.0 0.00 0.00 0.00 86 919.7
20181019165019 9 0.0 0.0 0.00 0.00 0.00 84 919.7
20181019164018 10 0.0 0.0 0.00 0.00 0.00 82 919.7
20181019163018 10 0.0 0.0 0.00 0.00 0.00 82 919.7
20181019162019 11 0.0 0.0 0.00 0.00 0.00 76 919.7
20181019161019 12 0.0 0.0 0.00 0.00 0.00 78 919.7
20181019160019 12 0.0 0.0 0.00 0.00 0.00 78 919.8
20181019155019 13 0.0 0.0 0.00 0.00 0.00 74 919.7
20181019154019 13 0.0 0.0 0.00 0.00 0.00 74 919.6
20181019153019 14 0.0 0.0 0.00 0.00 0.00 71 919.7
20181019152019 15 0.0 0.0 0.00 0.00 0.00 69 919.7
20181019151018 15 0.0 0.0 0.00 0.00 0.00 66 919.7
20181019150018 16 0.0 0.0 0.00 0.00 0.00 64 919.8
20181019145018 16 0.0 3.2 0.00 0.00 0.00 62 919.8
20181019144017 17 0.0 1.6 0.00 0.00 0.00 61 919.8
20181019143021 17 0.0 3.2 0.00 0.00 0.00 57 919.8
20181019142018 18 135 1.6 4.8 0.00 0.00 0.00 56 919.8
20181019141018 18 135 1.6 6.4 0.00 0.00 0.00 56 919.8
20181019140018 18 135 1.6 8.0 0.00 0.00 0.00 59 919.8
20181019135018 18 135 3.2 9.7 0.00 0.00 0.00 55 919.8
20181019134018 19 135 3.2 8.0 0.00 0.00 0.00 56 919.9
20181019133019 19 135 3.2 8.0 0.00 0.00 0.00 59 919.9
20181019132018 19 135 4.8 9.7 0.00 0.00 0.00 58 919.9
20181019131019 20 135 3.2 9.7 0.00 0.00 0.00 55 919.9
20181019130019 20 157 4.8 11.3 0.00 0.00 0.00 56 920.0
20181019125020 20 135 4.8 11.3 0.00 0.00 0.00 53 919.9
20181019124022 20 135 4.8 11.3 0.00 0.00 0.00 52 919.9